Location: Kellogg
(38.0159°N, 90.0546°W)
Time: 08:46:01
(UTC+00:00)

Altair - Pass Details

Date: 13 September 2024
Orbit: 1501 x 1682 km, 47.2° (Epoch: 07 October)

Event Time Altitude Azimuth Distance (km) Brightness Sun altitude
Rises 08:18:38 0° 225° (SW) 4,824 - -36.9°
Reaches altitude 10° 08:21:43 10° 223° (SW) 3,862 - -36.5°
Exits shadow 08:30:47 68° 171° (S) 1,766 7.5 -35.1°
Maximum altitude 08:31:34 71° 141° (SE) 1,746 7.6 -35.0°
Drops below altitude 10° 08:41:40 10° 61° (ENE) 3,948 10.5 -33.5°
Sets 08:44:52 0° 59° (ENE) 4,937 11.2 -33.0°
